Time,TemperatureF,DewpointF,PressureIn,WindDirection,WindDirectionDegrees,WindSpeedMPH,WindSpeedGustMPH,Humidity,HourlyPrecipIn,Conditions,Clouds,dailyrainin,SoftwareType,DateUTC
2013-02-05 00:00:00,7.9,-10.0,29.76,ENE,74,8.0,12.0,43,0.00,,,0.00,Wunderground v.1.15,2013-02-05 05:00:00,
2013-02-05 00:05:00,7.9,-10.0,29.76,NE,51,9.0,12.0,43,0.00,,,0.00,Wunderground v.1.15,2013-02-05 05:05:00,
2013-02-05 00:10:00,7.7,-10.2,29.77,ENE,73,5.0,14.0,43,0.00,,,0.00,Wunderground v.1.15,2013-02-05 05:10:00,
2013-02-05 00:15:00,7.6,-9.8,29.77,NNE,12,6.0,14.0,44,0.00,,,0.00,Wunderground v.1.15,2013-02-05 05:15:00,
2013-02-05 00:20:00,7.5,-9.4,29.77,North,360,5.0,5.0,45,0.00,,,0.00,Wunderground v.1.15,2013-02-05 05:20:00,
2013-02-05 00:25:00,7.4,-9.5,29.77,NE,34,4.0,7.0,45,0.00,,,0.00,Wunderground v.1.15,2013-02-05 05:25:00,
2013-02-05 00:30:00,7.4,-9.5,29.77,NE,55,6.0,6.0,45,0.00,,,0.00,Wunderground v.1.15,2013-02-05 05:30:00,
2013-02-05 00:35:00,7.4,-9.5,29.77,NE,46,8.0,8.0,45,0.00,,,0.00,Wunderground v.1.15,2013-02-05 05:35:00,
2013-02-05 00:40:00,7.3,-9.6,29.77,North,10,7.0,7.0,45,0.00,,,0.00,Wunderground v.1.15,2013-02-05 05:40:00,
2013-02-05 00:45:00,7.2,-9.3,29.78,NE,53,5.0,7.0,46,0.00,,,0.00,Wunderground v.1.15,2013-02-05 05:45:00,
2013-02-05 00:50:00,7.0,-9.0,29.78,NW,306,5.0,6.0,47,0.00,,,0.00,Wunderground v.1.15,2013-02-05 05:50:00,
2013-02-05 00:55:00,7.0,-9.5,29.78,NNE,26,6.0,6.0,46,0.00,,,0.00,Wunderground v.1.15,2013-02-05 05:55:00,
2013-02-05 01:00:00,6.9,-9.1,29.78,NE,40,6.0,10.0,47,0.00,,,0.00,Wunderground v.1.15,2013-02-05 06:00:00,
2013-02-05 01:05:00,6.7,-8.9,29.78,North,11,5.0,10.0,48,0.00,,,0.00,Wunderground v.1.15,2013-02-05 06:05:00,
2013-02-05 01:10:00,6.6,-9.4,29.78,NE,39,6.0,6.0,47,0.00,,,0.00,Wunderground v.1.15,2013-02-05 06:10:00,
2013-02-05 01:15:00,6.6,-9.0,29.78,NNE,25,6.0,6.0,48,0.00,,,0.00,Wunderground v.1.15,2013-02-05 06:15:00,
2013-02-05 01:20:00,6.4,-9.1,29.78,NE,41,5.0,11.0,48,0.00,,,0.00,Wunderground v.1.15,2013-02-05 06:20:00,
2013-02-05 01:25:00,6.3,-8.8,29.78,NNE,30,5.0,11.0,49,0.00,,,0.00,Wunderground v.1.15,2013-02-05 06:25:00,
2013-02-05 01:30:00,6.3,-8.8,29.78,NNE,30,5.0,5.0,49,0.00,,,0.00,Wunderground v.1.15,2013-02-05 06:30:00,
2013-02-05 01:35:00,6.2,-8.9,29.78,East,82,5.0,6.0,49,0.00,,,0.00,Wunderground v.1.15,2013-02-05 06:35:00,
2013-02-05 01:40:00,6.2,-8.9,29.78,NNE,17,5.0,5.0,49,0.00,,,0.00,Wunderground v.1.15,2013-02-05 06:40:00,
2013-02-05 01:45:00,6.1,-9.0,29.78,NE,53,5.0,7.0,49,0.00,,,0.00,Wunderground v.1.15,2013-02-05 06:45:00,
2013-02-05 01:50:00,6.0,-8.7,29.78,NE,53,4.0,9.0,50,0.00,,,0.00,Wunderground v.1.15,2013-02-05 06:50:00,
2013-02-05 01:55:00,5.9,-8.8,29.78,NE,34,4.0,9.0,50,0.00,,,0.00,Wunderground v.1.15,2013-02-05 06:55:00,
2013-02-05 02:00:00,5.9,-8.8,29.78,ENE,63,4.0,4.0,50,0.00,,,0.00,Wunderground v.1.15,2013-02-05 07:00:00,
2013-02-05 02:05:00,6.0,-8.7,29.79,North,350,4.0,4.0,50,0.00,,,0.00,Wunderground v.1.15,2013-02-05 07:05:00,
2013-02-05 02:10:00,6.0,-8.7,29.79,NNE,19,4.0,5.0,50,0.00,,,0.00,Wunderground v.1.15,2013-02-05 07:10:00,
2013-02-05 02:15:00,6.1,-9.0,29.79,ENE,62,4.0,5.0,49,0.00,,,0.00,Wunderground v.1.15,2013-02-05 07:15:00,
2013-02-05 02:20:00,6.0,-8.7,29.79,ENE,59,4.0,4.0,50,0.00,,,0.00,Wunderground v.1.15,2013-02-05 07:20:00,
2013-02-05 02:25:00,6.0,-8.7,29.80,ENE,61,4.0,4.0,50,0.00,,,0.00,Wunderground v.1.15,2013-02-05 07:25:00,
2013-02-05 02:30:00,5.9,-8.8,29.79,NE,50,4.0,4.0,50,0.00,,,0.00,Wunderground v.1.15,2013-02-05 07:30:00,
2013-02-05 02:35:00,5.9,-8.8,29.80,NE,36,5.0,5.0,50,0.00,,,0.00,Wunderground v.1.15,2013-02-05 07:35:00,
2013-02-05 02:40:00,5.8,-8.9,29.80,NE,42,3.0,5.0,50,0.00,,,0.00,Wunderground v.1.15,2013-02-05 07:40:00,
2013-02-05 02:45:00,5.8,-8.9,29.80,ENE,71,3.0,9.0,50,0.00,,,0.00,Wunderground v.1.15,2013-02-05 07:45:00,
2013-02-05 02:50:00,5.8,-8.9,29.80,NE,48,5.0,5.0,50,0.00,,,0.00,Wunderground v.1.15,2013-02-05 07:50:00,
2013-02-05 02:55:00,6.0,-8.7,29.80,North,360,5.0,5.0,50,0.00,,,0.00,Wunderground v.1.15,2013-02-05 07:55:00,
2013-02-05 03:00:00,6.0,-8.7,29.80,ENE,63,6.0,6.0,50,0.00,,,0.00,Wunderground v.1.15,2013-02-05 08:00:00,
2013-02-05 03:05:00,5.9,-8.8,29.80,North,355,5.0,6.0,50,0.00,,,0.00,Wunderground v.1.15,2013-02-05 08:05:00,
2013-02-05 03:10:00,5.8,-8.9,29.81,North,355,4.0,4.0,50,0.00,,,0.00,Wunderground v.1.15,2013-02-05 08:10:00,
2013-02-05 03:15:00,5.7,-8.6,29.81,NNE,28,3.0,5.0,51,0.00,,,0.00,Wunderground v.1.15,2013-02-05 08:15:00,
2013-02-05 03:20:00,5.6,-8.7,29.81,NE,43,3.0,3.0,51,0.00,,,0.00,Wunderground v.1.15,2013-02-05 08:20:00,
2013-02-05 03:25:00,5.5,-8.7,29.81,North,9,4.0,4.0,51,0.00,,,0.00,Wunderground v.1.15,2013-02-05 08:25:00,
2013-02-05 03:30:00,5.3,-8.5,29.81,North,5,5.0,5.0,52,0.00,,,0.00,Wunderground v.1.15,2013-02-05 08:30:00,
2013-02-05 03:35:00,5.3,-8.5,29.82,ENE,72,5.0,7.0,52,0.00,,,0.00,Wunderground v.1.15,2013-02-05 08:35:00,
2013-02-05 03:40:00,5.3,-8.5,29.82,ENE,71,6.0,6.0,52,0.00,,,0.00,Wunderground v.1.15,2013-02-05 08:40:00,
2013-02-05 03:45:00,5.2,-8.6,29.82,NE,38,5.0,6.0,52,0.00,,,0.00,Wunderground v.1.15,2013-02-05 08:45:00,
2013-02-05 03:50:00,5.1,-8.7,29.82,NNE,24,4.0,4.0,52,0.00,,,0.00,Wunderground v.1.15,2013-02-05 08:50:00,
2013-02-05 03:55:00,5.1,-8.7,29.82,NW,311,5.0,5.0,52,0.00,,,0.00,Wunderground v.1.15,2013-02-05 08:55:00,
2013-02-05 04:00:00,5.2,-8.6,29.82,NNE,21,5.0,5.0,52,0.00,,,0.00,Wunderground v.1.15,2013-02-05 09:00:00,
2013-02-05 04:05:00,5.3,-8.5,29.83,NNW,344,4.0,6.0,52,0.00,,,0.00,Wunderground v.1.15,2013-02-05 09:05:00,
2013-02-05 04:10:00,5.4,-8.4,29.83,North,360,4.0,4.0,52,0.00,,,0.00,Wunderground v.1.15,2013-02-05 09:10:00,
2013-02-05 04:15:00,5.3,-8.5,29.83,NNE,32,4.0,4.0,52,0.00,,,0.00,Wunderground v.1.15,2013-02-05 09:15:00,
2013-02-05 04:20:00,5.1,-8.7,29.83,North,350,3.0,3.0,52,0.00,,,0.00,Wunderground v.1.15,2013-02-05 09:20:00,
2013-02-05 04:25:00,5.1,-8.7,29.83,NNE,14,3.0,3.0,52,0.00,,,0.00,Wunderground v.1.15,2013-02-05 09:25:00,
2013-02-05 04:30:00,5.0,-8.8,29.83,NNE,31,3.0,3.0,52,0.00,,,0.00,Wunderground v.1.15,2013-02-05 09:30:00,
2013-02-05 04:35:00,4.9,-8.9,29.83,NE,51,3.0,3.0,52,0.00,,,0.00,Wunderground v.1.15,2013-02-05 09:35:00,
2013-02-05 04:40:00,4.7,-8.7,29.83,NNW,348,2.0,3.0,53,0.00,,,0.00,Wunderground v.1.15,2013-02-05 09:40:00,
2013-02-05 04:45:00,4.6,-8.8,29.83,NW,322,3.0,3.0,53,0.00,,,0.00,Wunderground v.1.15,2013-02-05 09:45:00,
2013-02-05 04:50:00,4.6,-8.8,29.83,ENE,72,3.0,4.0,53,0.00,,,0.00,Wunderground v.1.15,2013-02-05 09:50:00,
2013-02-05 04:55:00,4.4,-8.6,29.83,East,86,2.0,5.0,54,0.00,,,0.00,Wunderground v.1.15,2013-02-05 09:55:00,
2013-02-05 05:00:00,4.3,-8.7,29.83,NNE,16,2.0,2.0,54,0.00,,,0.00,Wunderground v.1.15,2013-02-05 10:00:00,
2013-02-05 05:05:00,4.2,-8.8,29.83,WNW,285,1.0,2.0,54,0.00,,,0.00,Wunderground v.1.15,2013-02-05 10:05:00,
2013-02-05 05:15:00,4.4,-8.6,29.83,NW,311,2.0,4.0,54,0.00,,,0.00,Wunderground v.1.15,2013-02-05 10:15:00,
2013-02-05 05:25:00,4.4,-8.6,29.84,NNE,13,1.0,2.0,54,0.00,,,0.00,Wunderground v.1.15,2013-02-05 10:25:00,
2013-02-05 05:30:00,4.2,-8.4,29.84,West,259,1.0,1.0,55,0.00,,,0.00,Wunderground v.1.15,2013-02-05 10:30:00,
2013-02-05 05:40:00,3.8,-8.1,29.85,WSW,248,1.0,2.0,57,0.00,,,0.00,Wunderground v.1.15,2013-02-05 10:40:00,
2013-02-05 05:45:00,3.7,-8.2,29.85,WSW,248,1.0,2.0,57,0.00,,,0.00,Wunderground v.1.15,2013-02-05 10:45:00,
2013-02-05 06:39:00,4.3,-8.7,29.83,NNE,29,2.0,4.0,54,0.00,,,0.00,Wunderground v.1.15,2013-02-05 11:39:00,
2013-02-05 06:49:00,4.4,-8.6,29.84,NNE,19,2.0,2.0,54,0.00,,,0.00,Wunderground v.1.15,2013-02-05 11:49:00,
2013-02-05 07:04:00,4.0,-8.2,29.84,West,259,1.0,2.0,56,0.00,,,0.00,Wunderground v.1.15,2013-02-05 12:04:00,
2013-02-05 07:19:00,3.7,-8.5,29.85,WSW,248,1.0,1.0,56,0.00,,,0.00,Wunderground v.1.15,2013-02-05 12:19:00,
2013-02-05 07:24:00,3.8,-8.4,29.85,WSW,248,1.0,1.0,56,0.00,,,0.00,Wunderground v.1.15,2013-02-05 12:24:00,
2013-02-05 07:29:00,3.9,-8.0,29.86,SW,214,0.0,3.0,57,0.00,,,0.00,Wunderground v.1.15,2013-02-05 12:29:00,
2013-02-05 07:34:00,3.9,-7.6,29.86,South,187,2.0,3.0,58,0.00,,,0.00,Wunderground v.1.15,2013-02-05 12:34:00,
2013-02-05 07:44:00,4.0,-7.5,29.86,SE,142,2.0,4.0,58,0.00,,,0.00,Wunderground v.1.15,2013-02-05 12:44:00,
2013-02-05 07:49:00,4.1,-7.4,29.87,South,186,3.0,3.0,58,0.00,,,0.00,Wunderground v.1.15,2013-02-05 12:49:00,
2013-02-05 07:54:00,4.1,-7.8,29.87,SSE,147,3.0,3.0,57,0.00,,,0.00,Wunderground v.1.15,2013-02-05 12:54:00,
2013-02-05 07:59:00,4.2,-7.7,29.88,SSE,168,1.0,1.0,57,0.00,,,0.00,Wunderground v.1.15,2013-02-05 12:59:00,
2013-02-05 08:04:00,4.5,-7.8,29.88,South,169,0.0,1.0,56,0.00,,,0.00,Wunderground v.1.15,2013-02-05 13:04:00,
2013-02-05 08:09:00,4.6,-7.3,29.88,SSE,168,1.0,2.0,57,0.00,,,0.00,Wunderground v.1.15,2013-02-05 13:09:00,
2013-02-05 08:14:00,4.7,-7.2,29.89,South,172,1.0,2.0,57,0.00,,,0.00,Wunderground v.1.15,2013-02-05 13:14:00,
2013-02-05 08:19:00,4.9,-7.4,29.89,SW,230,1.0,6.0,56,0.00,,,0.00,Wunderground v.1.15,2013-02-05 13:19:00,
2013-02-05 08:24:00,5.5,-7.6,29.90,WNW,292,3.0,6.0,54,0.00,,,0.00,Wunderground v.1.15,2013-02-05 13:24:00,
2013-02-05 08:29:00,5.9,-7.6,29.90,WNW,296,3.0,6.0,53,0.00,,,0.00,Wunderground v.1.15,2013-02-05 13:29:00,
2013-02-05 08:34:00,6.3,-7.2,29.90,WNW,287,1.0,6.0,53,0.00,,,0.00,Wunderground v.1.15,2013-02-05 13:34:00,
2013-02-05 08:44:00,6.7,-6.5,29.90,SW,225,1.0,1.0,54,0.00,,,0.00,Wunderground v.1.15,2013-02-05 13:44:00,
2013-02-05 08:49:00,6.8,-7.1,29.90,SE,134,1.0,3.0,52,0.00,,,0.00,Wunderground v.1.15,2013-02-05 13:49:00,
2013-02-05 08:54:00,7.1,-7.3,29.90,NE,51,2.0,3.0,51,0.00,,,0.00,Wunderground v.1.15,2013-02-05 13:54:00,
2013-02-05 08:59:00,7.5,-7.3,29.91,NNW,333,3.0,3.0,50,0.00,,,0.00,Wunderground v.1.15,2013-02-05 13:59:00,
2013-02-05 09:04:00,7.7,-7.1,29.91,SE,132,2.0,4.0,50,0.00,,,0.00,Wunderground v.1.15,2013-02-05 14:04:00,
2013-02-05 09:09:00,7.9,-6.9,29.91,NNW,331,1.0,2.0,50,0.00,,,0.00,Wunderground v.1.15,2013-02-05 14:09:00,
2013-02-05 09:14:00,8.2,-7.1,29.92,NE,42,2.0,2.0,49,0.00,,,0.00,Wunderground v.1.15,2013-02-05 14:14:00,
2013-02-05 09:19:00,8.4,-7.3,29.91,NE,53,2.0,2.0,48,0.00,,,0.00,Wunderground v.1.15,2013-02-05 14:19:00,
2013-02-05 09:24:00,8.5,-7.2,29.91,SW,222,2.0,2.0,48,0.00,,,0.00,Wunderground v.1.15,2013-02-05 14:24:00,
2013-02-05 09:29:00,8.6,-7.5,29.91,ENE,76,3.0,4.0,47,0.00,,,0.00,Wunderground v.1.15,2013-02-05 14:29:00,
2013-02-05 09:34:00,9.1,-6.6,29.92,NW,323,3.0,4.0,48,0.00,,,0.00,Wunderground v.1.15,2013-02-05 14:34:00,
2013-02-05 09:44:00,9.4,-7.2,29.92,East,91,5.0,5.0,46,0.00,,,0.00,Wunderground v.1.15,2013-02-05 14:44:00,
2013-02-05 09:49:00,9.5,-7.2,29.92,NE,47,5.0,5.0,46,0.00,,,0.00,Wunderground v.1.15,2013-02-05 14:49:00,
2013-02-05 09:54:00,9.5,-7.6,29.92,NNE,27,3.0,5.0,45,0.00,,,0.00,Wunderground v.1.15,2013-02-05 14:54:00,
2013-02-05 09:59:00,9.5,-7.6,29.92,North,355,2.0,4.0,45,0.00,,,0.00,Wunderground v.1.15,2013-02-05 14:59:00,
2013-02-05 10:04:00,9.6,-7.1,29.92,ESE,119,3.0,4.0,46,0.00,,,0.00,Wunderground v.1.15,2013-02-05 15:04:00,
2013-02-05 10:09:00,9.9,-6.8,29.92,NNE,24,4.0,4.0,46,0.00,,,0.00,Wunderground v.1.15,2013-02-05 15:09:00,
2013-02-05 10:14:00,10.0,-7.1,29.92,NNE,31,2.0,4.0,45,0.00,,,0.00,Wunderground v.1.15,2013-02-05 15:14:00,
2013-02-05 10:24:00,10.3,-6.4,29.92,East,80,4.0,9.0,46,0.00,,,0.00,Wunderground v.1.15,2013-02-05 15:24:00,
2013-02-05 10:29:00,10.5,-7.2,29.92,WNW,299,4.0,4.0,44,0.00,,,0.00,Wunderground v.1.15,2013-02-05 15:29:00,
2013-02-05 10:34:00,10.9,-6.8,29.92,NNE,22,3.0,6.0,44,0.00,,,0.00,Wunderground v.1.15,2013-02-05 15:34:00,
2013-02-05 10:44:00,11.0,-6.7,29.92,ESE,116,5.0,9.0,44,0.00,,,0.00,Wunderground v.1.15,2013-02-05 15:44:00,
2013-02-05 10:49:00,11.2,-7.0,29.92,NE,35,5.0,5.0,43,0.00,,,0.00,Wunderground v.1.15,2013-02-05 15:49:00,
2013-02-05 10:54:00,11.4,-6.8,29.92,NE,51,5.0,8.0,43,0.00,,,0.00,Wunderground v.1.15,2013-02-05 15:54:00,
2013-02-05 11:04:00,12.1,-6.2,29.92,NE,53,5.0,5.0,43,0.00,,,0.00,Wunderground v.1.15,2013-02-05 16:04:00,
2013-02-05 11:09:00,12.4,-5.9,29.92,ENE,59,4.0,4.0,43,0.00,,,0.00,Wunderground v.1.15,2013-02-05 16:09:00,
2013-02-05 11:14:00,12.5,-5.8,29.92,East,98,6.0,6.0,43,0.00,,,0.00,Wunderground v.1.15,2013-02-05 16:14:00,
2013-02-05 11:19:00,12.6,-6.2,29.91,ENE,78,6.0,6.0,42,0.00,,,0.00,Wunderground v.1.15,2013-02-05 16:19:00,
2013-02-05 11:24:00,13.0,-5.8,29.91,NE,46,5.0,6.0,42,0.00,,,0.00,Wunderground v.1.15,2013-02-05 16:24:00,
2013-02-05 11:29:00,13.2,-5.6,29.91,NE,53,5.0,5.0,42,0.00,,,0.00,Wunderground v.1.15,2013-02-05 16:29:00,
2013-02-05 11:34:00,13.4,-5.0,29.90,ESE,116,4.0,6.0,43,0.00,,,0.00,Wunderground v.1.15,2013-02-05 16:34:00,
2013-02-05 11:44:00,13.8,-5.1,29.90,ENE,67,7.0,7.0,42,0.00,,,0.00,Wunderground v.1.15,2013-02-05 16:44:00,
2013-02-05 11:49:00,13.8,-5.6,29.90,NE,44,5.0,9.0,41,0.00,,,0.00,Wunderground v.1.15,2013-02-05 16:49:00,
2013-02-05 11:54:00,14.4,-5.1,29.90,NW,325,4.0,9.0,41,0.00,,,0.00,Wunderground v.1.15,2013-02-05 16:54:00,
2013-02-05 11:59:00,15.0,-4.5,29.89,WNW,296,4.0,4.0,41,0.00,,,0.00,Wunderground v.1.15,2013-02-05 16:59:00,
2013-02-05 12:04:00,15.3,-4.8,29.89,NNE,17,4.0,4.0,40,0.00,,,0.00,Wunderground v.1.15,2013-02-05 17:04:00,
2013-02-05 12:09:00,15.2,-4.8,29.89,NNW,341,4.0,4.0,40,0.00,,,0.00,Wunderground v.1.15,2013-02-05 17:09:00,
2013-02-05 12:14:00,15.5,-4.6,29.89,ENE,67,3.0,6.0,40,0.00,,,0.00,Wunderground v.1.15,2013-02-05 17:14:00,
2013-02-05 12:19:00,15.5,-4.6,29.89,NNE,32,4.0,4.0,40,0.00,,,0.00,Wunderground v.1.15,2013-02-05 17:19:00,
2013-02-05 12:24:00,15.8,-3.8,29.89,NE,53,3.0,4.0,41,0.00,,,0.00,Wunderground v.1.15,2013-02-05 17:24:00,
2013-02-05 12:29:00,16.3,-4.4,29.88,East,85,3.0,7.0,39,0.00,,,0.00,Wunderground v.1.15,2013-02-05 17:29:00,
2013-02-05 12:34:00,16.4,-4.3,29.88,ESE,108,5.0,10.0,39,0.00,,,0.00,Wunderground v.1.15,2013-02-05 17:34:00,
2013-02-05 12:44:00,16.4,-5.4,29.88,ENE,67,4.0,5.0,37,0.00,,,0.00,Wunderground v.1.15,2013-02-05 17:44:00,
2013-02-05 12:49:00,16.6,-3.6,29.88,East,93,3.0,6.0,40,0.00,,,0.00,Wunderground v.1.15,2013-02-05 17:49:00,
2013-02-05 12:54:00,16.7,-4.0,29.88,ENE,67,4.0,6.0,39,0.00,,,0.00,Wunderground v.1.15,2013-02-05 17:54:00,
2013-02-05 12:59:00,16.9,-4.4,29.88,ENE,66,6.0,6.0,38,0.00,,,0.00,Wunderground v.1.15,2013-02-05 17:59:00,
2013-02-05 13:04:00,17.0,-5.4,29.88,NNE,26,4.0,6.0,36,0.00,,,0.00,Wunderground v.1.15,2013-02-05 18:04:00,
2013-02-05 13:09:00,17.2,-5.2,29.88,NE,53,4.0,4.0,36,0.00,,,0.00,Wunderground v.1.15,2013-02-05 18:09:00,
2013-02-05 13:14:00,17.5,-5.0,29.88,East,84,4.0,4.0,36,0.00,,,0.00,Wunderground v.1.15,2013-02-05 18:14:00,
2013-02-05 13:19:00,17.9,-4.6,29.88,ESE,121,3.0,3.0,36,0.00,,,0.00,Wunderground v.1.15,2013-02-05 18:19:00,
2013-02-05 13:24:00,18.1,-3.9,29.88,ENE,76,3.0,3.0,37,0.00,,,0.00,Wunderground v.1.15,2013-02-05 18:24:00,
2013-02-05 13:29:00,18.2,-3.8,29.88,ENE,74,3.0,5.0,37,0.00,,,0.00,Wunderground v.1.15,2013-02-05 18:29:00,
2013-02-05 13:34:00,18.2,-4.9,29.88,NNW,345,4.0,5.0,35,0.00,,,0.00,Wunderground v.1.15,2013-02-05 18:34:00,
2013-02-05 13:44:00,18.5,-4.1,29.88,NNE,21,3.0,6.0,36,0.00,,,0.00,Wunderground v.1.15,2013-02-05 18:44:00,
2013-02-05 13:49:00,18.1,-5.0,29.88,NE,48,4.0,4.0,35,0.00,,,0.00,Wunderground v.1.15,2013-02-05 18:49:00,
2013-02-05 13:54:00,18.3,-4.2,29.88,ENE,72,4.0,4.0,36,0.00,,,0.00,Wunderground v.1.15,2013-02-05 18:54:00,
2013-02-05 13:59:00,18.7,-3.3,29.88,ENE,59,4.0,4.0,37,0.00,,,0.00,Wunderground v.1.15,2013-02-05 18:59:00,
2013-02-05 14:04:00,18.9,-3.7,29.88,ESE,103,4.0,4.0,36,0.00,,,0.00,Wunderground v.1.15,2013-02-05 19:04:00,
2013-02-05 14:09:00,18.9,-4.3,29.88,NE,53,3.0,3.0,35,0.00,,,0.00,Wunderground v.1.15,2013-02-05 19:09:00,
2013-02-05 14:14:00,19.2,-3.4,29.88,NNW,327,3.0,8.0,36,0.00,,,0.00,Wunderground v.1.15,2013-02-05 19:14:00,
2013-02-05 14:19:00,19.7,-3.6,29.88,NNE,18,4.0,4.0,35,0.00,,,0.00,Wunderground v.1.15,2013-02-05 19:19:00,
2013-02-05 14:24:00,19.8,-3.5,29.88,SE,142,4.0,6.0,35,0.00,,,0.00,Wunderground v.1.15,2013-02-05 19:24:00,
2013-02-05 14:29:00,19.9,-3.4,29.88,ENE,76,4.0,7.0,35,0.00,,,0.00,Wunderground v.1.15,2013-02-05 19:29:00,
2013-02-05 14:34:00,19.7,-4.8,29.88,ESE,119,5.0,7.0,33,0.00,,,0.00,Wunderground v.1.15,2013-02-05 19:34:00,
2013-02-05 14:44:00,19.7,-4.8,29.88,North,350,4.0,5.0,33,0.00,,,0.00,Wunderground v.1.15,2013-02-05 19:44:00,
2013-02-05 14:49:00,19.7,-3.0,29.88,NE,40,3.0,3.0,36,0.00,,,0.00,Wunderground v.1.15,2013-02-05 19:49:00,
2013-02-05 14:54:00,19.9,-3.4,29.88,ENE,78,3.0,3.0,35,0.00,,,0.00,Wunderground v.1.15,2013-02-05 19:54:00,
2013-02-05 14:59:00,20.3,-3.7,29.87,ENE,76,3.0,3.0,34,0.00,,,0.00,Wunderground v.1.15,2013-02-05 19:59:00,
2013-02-05 15:04:00,20.4,-3.6,29.87,NE,49,2.0,4.0,34,0.00,,,0.00,Wunderground v.1.15,2013-02-05 20:04:00,
2013-02-05 15:09:00,20.5,-2.3,29.87,East,80,3.0,3.0,36,0.00,,,0.00,Wunderground v.1.15,2013-02-05 20:09:00,
2013-02-05 15:14:00,20.7,-2.7,29.87,NNW,342,2.0,3.0,35,0.00,,,0.00,Wunderground v.1.15,2013-02-05 20:14:00,
2013-02-05 15:19:00,20.6,-3.4,29.87,NNE,15,1.0,1.0,34,0.00,,,0.00,Wunderground v.1.15,2013-02-05 20:19:00,
2013-02-05 15:24:00,20.5,-3.5,29.87,East,96,1.0,1.0,34,0.00,,,0.00,Wunderground v.1.15,2013-02-05 20:24:00,
2013-02-05 15:29:00,20.8,-2.0,29.87,SSE,159,1.0,1.0,36,0.00,,,0.00,Wunderground v.1.15,2013-02-05 20:29:00,
2013-02-05 15:34:00,21.1,-2.9,29.87,North,360,1.0,1.0,34,0.00,,,0.00,Wunderground v.1.15,2013-02-05 20:34:00,
2013-02-05 15:44:00,21.4,-3.3,29.86,North,360,1.0,2.0,33,0.00,,,0.00,Wunderground v.1.15,2013-02-05 20:44:00,
2013-02-05 15:49:00,21.3,-3.4,29.86,NNW,331,0.0,0.0,33,0.00,,,0.00,Wunderground v.1.15,2013-02-05 20:49:00,
2013-02-05 15:54:00,21.2,-2.9,29.86,NNW,331,0.0,0.0,34,0.00,,,0.00,Wunderground v.1.15,2013-02-05 20:54:00,
2013-02-05 15:59:00,21.3,-2.2,29.86,ENE,69,1.0,2.0,35,0.00,,,0.00,Wunderground v.1.15,2013-02-05 20:59:00,
2013-02-05 16:04:00,21.4,-1.5,29.86,ENE,71,1.0,2.0,36,0.00,,,0.00,Wunderground v.1.15,2013-02-05 21:04:00,
2013-02-05 16:09:00,21.6,-3.1,29.86,ENE,69,1.0,1.0,33,0.00,,,0.00,Wunderground v.1.15,2013-02-05 21:09:00,
2013-02-05 16:14:00,21.5,-3.2,29.87,NE,49,0.0,1.0,33,0.00,,,0.00,Wunderground v.1.15,2013-02-05 21:14:00,
2013-02-05 16:19:00,21.3,-2.8,29.87,North,11,0.0,0.0,34,0.00,,,0.00,Wunderground v.1.15,2013-02-05 21:19:00,
2013-02-05 16:24:00,21.0,-2.4,29.87,North,10,0.0,0.0,35,0.00,,,0.00,Wunderground v.1.15,2013-02-05 21:24:00,
2013-02-05 16:29:00,20.9,-3.1,29.87,North,11,0.0,0.0,34,0.00,,,0.00,Wunderground v.1.15,2013-02-05 21:29:00,
2013-02-05 16:34:00,20.7,-2.7,29.87,North,11,0.0,0.0,35,0.00,,,0.00,Wunderground v.1.15,2013-02-05 21:34:00,
2013-02-05 16:44:00,19.9,-2.2,29.87,North,10,0.0,0.0,37,0.00,,,0.00,Wunderground v.1.15,2013-02-05 21:44:00,
2013-02-05 16:49:00,19.4,-3.3,29.87,North,11,0.0,0.0,36,0.00,,,0.00,Wunderground v.1.15,2013-02-05 21:49:00,
2013-02-05 16:54:00,19.0,-1.9,29.86,North,10,0.0,0.0,39,0.00,,,0.00,Wunderground v.1.15,2013-02-05 21:54:00,
2013-02-05 16:59:00,18.7,-0.1,29.86,ENE,65,0.0,1.0,43,0.00,,,0.00,Wunderground v.1.15,2013-02-05 21:59:00,
2013-02-05 17:04:00,18.2,-1.1,29.86,SE,132,0.0,1.0,42,0.00,,,0.00,Wunderground v.1.15,2013-02-05 22:04:00,
2013-02-05 17:09:00,17.9,-1.4,29.86,SE,144,0.0,0.0,42,0.00,,,0.00,Wunderground v.1.15,2013-02-05 22:09:00,
2013-02-05 17:14:00,17.5,-1.2,29.87,South,182,0.0,0.0,43,0.00,,,0.00,Wunderground v.1.15,2013-02-05 22:14:00,
2013-02-05 17:19:00,17.2,-2.0,29.87,South,183,1.0,1.0,42,0.00,,,0.00,Wunderground v.1.15,2013-02-05 22:19:00,
2013-02-05 17:24:00,17.0,-2.7,29.88,South,183,1.0,1.0,41,0.00,,,0.00,Wunderground v.1.15,2013-02-05 22:24:00,
2013-02-05 17:29:00,16.9,-2.8,29.88,South,183,0.0,0.0,41,0.00,,,0.00,Wunderground v.1.15,2013-02-05 22:29:00,
2013-02-05 17:34:00,16.7,-3.5,29.88,South,183,0.0,0.0,40,0.00,,,0.00,Wunderground v.1.15,2013-02-05 22:34:00,
2013-02-05 17:44:00,16.6,-3.6,29.88,South,183,0.0,0.0,40,0.00,,,0.00,Wunderground v.1.15,2013-02-05 22:44:00,
2013-02-05 17:49:00,16.6,-3.1,29.88,South,183,0.0,0.0,41,0.00,,,0.00,Wunderground v.1.15,2013-02-05 22:49:00,
2013-02-05 17:54:00,16.4,-2.2,29.88,South,183,0.0,0.0,43,0.00,,,0.00,Wunderground v.1.15,2013-02-05 22:54:00,
2013-02-05 17:59:00,16.2,-2.9,29.88,South,183,0.0,0.0,42,0.00,,,0.00,Wunderground v.1.15,2013-02-05 22:59:00,
2013-02-05 18:04:00,16.0,-2.6,29.89,South,183,0.0,0.0,43,0.00,,,0.00,Wunderground v.1.15,2013-02-05 23:04:00,
2013-02-05 18:09:00,15.8,-2.8,29.88,South,183,0.0,0.0,43,0.00,,,0.00,Wunderground v.1.15,2013-02-05 23:09:00,
2013-02-05 18:14:00,15.6,-2.5,29.88,South,183,0.0,0.0,44,0.00,,,0.00,Wunderground v.1.15,2013-02-05 23:14:00,
2013-02-05 18:19:00,15.4,-1.7,29.88,South,183,1.0,1.0,46,0.00,,,0.00,Wunderground v.1.15,2013-02-05 23:19:00,
2013-02-05 18:24:00,15.2,-1.9,29.88,South,183,0.0,1.0,46,0.00,,,0.00,Wunderground v.1.15,2013-02-05 23:24:00,
2013-02-05 18:34:00,14.9,-2.2,29.89,South,182,1.0,1.0,46,0.00,,,0.00,Wunderground v.1.15,2013-02-05 23:34:00,
2013-02-05 18:44:00,14.4,-2.2,29.89,South,175,1.0,3.0,47,0.00,,,0.00,Wunderground v.1.15,2013-02-05 23:44:00,
2013-02-05 18:49:00,14.5,-1.7,29.88,SSE,154,2.0,2.0,48,0.00,,,0.00,Wunderground v.1.15,2013-02-05 23:49:00,
2013-02-05 18:54:00,14.4,-1.7,29.89,SSE,153,2.0,2.0,48,0.00,,,0.00,Wunderground v.1.15,2013-02-05 23:54:00,
2013-02-05 18:59:00,14.5,-0.4,29.88,SSE,152,1.0,1.0,51,0.00,,,0.00,Wunderground v.1.15,2013-02-05 23:59:00,
2013-02-05 19:09:00,14.4,-0.5,29.88,SSE,153,0.0,0.0,51,0.00,,,0.00,Wunderground v.1.15,2013-02-06 00:09:00,
2013-02-05 19:14:00,14.4,0.0,29.88,SSE,153,0.0,0.0,52,0.00,,,0.00,Wunderground v.1.15,2013-02-06 00:14:00,
2013-02-05 19:19:00,14.3,-0.1,29.88,SSE,152,0.0,0.0,52,0.00,,,0.00,Wunderground v.1.15,2013-02-06 00:19:00,
2013-02-05 19:24:00,14.2,-0.2,29.88,SSE,153,0.0,0.0,52,0.00,,,0.00,Wunderground v.1.15,2013-02-06 00:24:00,
2013-02-05 19:29:00,14.1,0.5,29.88,SSE,153,0.0,0.0,54,0.00,,,0.00,Wunderground v.1.15,2013-02-06 00:29:00,
2013-02-05 19:34:00,13.9,-0.1,29.88,SSE,152,0.0,0.0,53,0.00,,,0.00,Wunderground v.1.15,2013-02-06 00:34:00,
2013-02-05 19:44:00,13.6,-0.4,29.88,SSE,153,0.0,2.0,53,0.00,,,0.00,Wunderground v.1.15,2013-02-06 00:44:00,
2013-02-05 19:49:00,13.6,-0.4,29.88,SSE,152,1.0,1.0,53,0.00,,,0.00,Wunderground v.1.15,2013-02-06 00:49:00,
2013-02-05 19:54:00,13.5,-0.9,29.88,SSE,152,2.0,2.0,52,0.00,,,0.00,Wunderground v.1.15,2013-02-06 00:54:00,
2013-02-05 19:59:00,13.5,-0.1,29.88,SSE,153,1.0,1.0,54,0.00,,,0.00,Wunderground v.1.15,2013-02-06 00:59:00,
2013-02-05 20:04:00,13.5,-0.1,29.88,SSE,152,1.0,1.0,54,0.00,,,0.00,Wunderground v.1.15,2013-02-06 01:04:00,
2013-02-05 20:09:00,13.4,-1.0,29.89,SSE,153,1.0,1.0,52,0.00,,,0.00,Wunderground v.1.15,2013-02-06 01:09:00,
2013-02-05 20:14:00,13.4,-1.0,29.89,SSE,152,1.0,1.0,52,0.00,,,0.00,Wunderground v.1.15,2013-02-06 01:14:00,
2013-02-05 20:19:00,13.5,-0.9,29.89,SSE,152,1.0,2.0,52,0.00,,,0.00,Wunderground v.1.15,2013-02-06 01:19:00,
2013-02-05 20:24:00,13.4,-1.0,29.89,SSE,153,1.0,3.0,52,0.00,,,0.00,Wunderground v.1.15,2013-02-06 01:24:00,
2013-02-05 20:29:00,13.4,-1.0,29.89,SSE,153,2.0,2.0,52,0.00,,,0.00,Wunderground v.1.15,2013-02-06 01:29:00,
2013-02-05 20:34:00,13.3,-1.1,29.89,SSE,153,2.0,2.0,52,0.00,,,0.00,Wunderground v.1.15,2013-02-06 01:34:00,
2013-02-05 20:44:00,13.4,0.2,29.90,SSE,153,1.0,1.0,55,0.00,,,0.00,Wunderground v.1.15,2013-02-06 01:44:00,
2013-02-05 20:49:00,13.5,-0.1,29.90,SSE,152,0.0,0.0,54,0.00,,,0.00,Wunderground v.1.15,2013-02-06 01:49:00,
2013-02-05 20:54:00,13.5,0.3,29.90,SSE,153,0.0,2.0,55,0.00,,,0.00,Wunderground v.1.15,2013-02-06 01:54:00,
2013-02-05 20:59:00,13.5,-0.5,29.90,SSE,153,2.0,2.0,53,0.00,,,0.00,Wunderground v.1.15,2013-02-06 01:59:00,
2013-02-05 21:04:00,13.4,-0.6,29.90,SSE,152,2.0,2.0,53,0.00,,,0.00,Wunderground v.1.15,2013-02-06 02:04:00,
2013-02-05 21:09:00,13.4,-0.6,29.90,SSE,152,2.0,2.0,53,0.00,,,0.00,Wunderground v.1.15,2013-02-06 02:09:00,
2013-02-05 21:14:00,13.4,-0.6,29.90,SSE,152,1.0,2.0,53,0.00,,,0.00,Wunderground v.1.15,2013-02-06 02:14:00,
2013-02-05 21:24:00,13.5,-0.1,29.90,SSE,152,0.0,0.0,54,0.00,,,0.00,Wunderground v.1.15,2013-02-06 02:24:00,
2013-02-05 21:29:00,13.4,-1.0,29.90,SSE,152,0.0,0.0,52,0.00,,,0.00,Wunderground v.1.15,2013-02-06 02:29:00,
2013-02-05 21:34:00,13.3,-0.3,29.90,SSE,152,0.0,0.0,54,0.00,,,0.00,Wunderground v.1.15,2013-02-06 02:34:00,
2013-02-05 21:44:00,13.2,0.0,29.89,SSE,161,0.0,0.0,55,0.00,,,0.00,Wunderground v.1.15,2013-02-06 02:44:00,
2013-02-05 21:54:00,13.0,0.2,29.90,SSE,155,0.0,2.0,56,0.00,,,0.00,Wunderground v.1.15,2013-02-06 02:54:00,
2013-02-05 21:59:00,13.0,0.2,29.90,SSE,151,1.0,2.0,56,0.00,,,0.00,Wunderground v.1.15,2013-02-06 02:59:00,
2013-02-05 22:04:00,12.8,0.0,29.90,SSE,151,2.0,2.0,56,0.00,,,0.00,Wunderground v.1.15,2013-02-06 03:04:00,
2013-02-05 22:09:00,12.7,0.7,29.90,SSE,151,1.0,1.0,58,0.00,,,0.00,Wunderground v.1.15,2013-02-06 03:09:00,
2013-02-05 22:14:00,12.6,0.6,29.89,SSE,150,0.0,1.0,58,0.00,,,0.00,Wunderground v.1.15,2013-02-06 03:14:00,
2013-02-05 22:24:00,12.6,-0.5,29.89,SSE,151,0.0,0.0,55,0.00,,,0.00,Wunderground v.1.15,2013-02-06 03:24:00,
2013-02-05 22:29:00,12.7,-0.1,29.89,SSE,150,0.0,0.0,56,0.00,,,0.00,Wunderground v.1.15,2013-02-06 03:29:00,
2013-02-05 22:34:00,12.7,-0.1,29.89,SSE,151,0.0,0.0,56,0.00,,,0.00,Wunderground v.1.15,2013-02-06 03:34:00,
2013-02-05 22:35:00,12.9,-1.0,29.88,SE,127,3.0,3.0,53,0.00,,,0.00,Wunderground v.1.15,2013-02-06 03:35:00,
2013-02-05 22:40:00,13.2,-0.4,29.88,SE,127,2.0,3.0,54,0.00,,,0.00,Wunderground v.1.15,2013-02-06 03:40:00,
2013-02-05 22:44:00,12.6,0.6,29.89,SSE,150,0.0,0.0,58,0.00,,,0.00,Wunderground v.1.15,2013-02-06 03:44:00,
2013-02-05 22:45:00,13.3,-1.1,29.87,SE,126,2.0,3.0,52,0.00,,,0.00,Wunderground v.1.15,2013-02-06 03:45:00,
2013-02-05 22:50:00,13.4,-0.2,29.88,SE,127,2.0,2.0,54,0.00,,,0.00,Wunderground v.1.15,2013-02-06 03:50:00,
2013-02-05 22:54:00,12.3,-0.1,29.88,SSE,151,0.0,0.0,57,0.00,,,0.00,Wunderground v.1.15,2013-02-06 03:54:00,
2013-02-05 22:55:00,13.3,0.9,29.87,SE,127,1.0,2.0,57,0.00,,,0.00,Wunderground v.1.15,2013-02-06 03:55:00,
2013-02-05 22:59:00,12.2,-0.1,29.89,SSE,150,0.0,0.0,57,0.00,,,0.00,Wunderground v.1.15,2013-02-06 03:59:00,
2013-02-05 23:00:00,13.1,0.7,29.87,SE,127,1.0,1.0,57,0.00,,,0.00,Wunderground v.1.15,2013-02-06 04:00:00,
2013-02-05 23:04:00,12.2,-0.5,29.88,SSE,151,0.0,1.0,56,0.00,,,0.00,Wunderground v.1.15,2013-02-06 04:04:00,
2013-02-05 23:05:00,12.9,-0.3,29.87,SE,131,2.0,3.0,55,0.00,,,0.00,Wunderground v.1.15,2013-02-06 04:05:00,
2013-02-05 23:09:00,12.1,-0.2,29.89,SSE,151,0.0,1.0,57,0.00,,,0.00,Wunderground v.1.15,2013-02-06 04:09:00,
2013-02-05 23:10:00,12.7,-0.1,29.87,SE,132,3.0,4.0,56,0.00,,,0.00,Wunderground v.1.15,2013-02-06 04:10:00,
2013-02-05 23:14:00,12.0,0.0,29.88,SSE,150,1.0,1.0,58,0.00,,,0.00,Wunderground v.1.15,2013-02-06 04:14:00,
2013-02-05 23:15:00,12.7,-0.4,29.87,SE,132,3.0,4.0,55,0.00,,,0.00,Wunderground v.1.15,2013-02-06 04:15:00,
2013-02-05 23:19:00,11.9,-0.1,29.88,SSE,151,1.0,1.0,58,0.00,,,0.00,Wunderground v.1.15,2013-02-06 04:19:00,
2013-02-05 23:20:00,12.9,0.5,29.87,SE,130,3.0,3.0,57,0.00,,,0.00,Wunderground v.1.15,2013-02-06 04:20:00,
2013-02-05 23:24:00,11.7,-0.3,29.88,SSE,151,1.0,2.0,58,0.00,,,0.00,Wunderground v.1.15,2013-02-06 04:24:00,
2013-02-05 23:25:00,12.8,-0.3,29.86,SE,131,2.0,3.0,55,0.00,,,0.00,Wunderground v.1.15,2013-02-06 04:25:00,
2013-02-05 23:29:00,11.7,-0.6,29.89,SSE,149,1.0,4.0,57,0.00,,,0.00,Wunderground v.1.15,2013-02-06 04:29:00,
2013-02-05 23:30:00,12.8,-0.3,29.86,SE,131,2.0,2.0,55,0.00,,,0.00,Wunderground v.1.15,2013-02-06 04:30:00,
2013-02-05 23:34:00,11.8,-0.5,29.89,ESE,123,3.0,4.0,57,0.00,,,0.00,Wunderground v.1.15,2013-02-06 04:34:00,
2013-02-05 23:35:00,12.8,0.4,29.86,SE,130,1.0,2.0,57,0.00,,,0.00,Wunderground v.1.15,2013-02-06 04:35:00,
2013-02-05 23:40:00,12.7,0.7,29.86,SE,130,0.0,0.0,58,0.00,,,0.00,Wunderground v.1.15,2013-02-06 04:40:00,
2013-02-05 23:44:00,11.9,-0.4,29.89,SE,127,3.0,3.0,57,0.00,,,0.00,Wunderground v.1.15,2013-02-06 04:44:00,
2013-02-05 23:45:00,12.3,0.3,29.86,SE,130,0.0,1.0,58,0.00,,,0.00,Wunderground v.1.15,2013-02-06 04:45:00,
2013-02-05 23:49:00,12.0,-0.3,29.89,SE,127,2.0,2.0,57,0.00,,,0.00,Wunderground v.1.15,2013-02-06 04:49:00,
2013-02-05 23:50:00,12.1,0.5,29.86,SE,131,1.0,2.0,59,0.00,,,0.00,Wunderground v.1.15,2013-02-06 04:50:00,
2013-02-05 23:54:00,12.2,-0.1,29.88,SE,126,2.0,3.0,57,0.00,,,0.00,Wunderground v.1.15,2013-02-06 04:54:00,
2013-02-05 23:55:00,11.8,-0.2,29.86,SE,127,2.0,2.0,58,0.00,,,0.00,Wunderground v.1.15,2013-02-06 04:55:00,
2013-02-05 23:59:00,12.4,-0.7,29.88,SE,127,3.0,3.0,55,0.00,,,0.00,Wunderground v.1.15,2013-02-06 04:59:00,